| time (UTC) | temp F | wind direction | speed MPH | gust MPH | rain 1hr in | rain 24hr in | rain mn in | humidity % | barometer mb |
| 20260831121555 | 61 | 111 | 0.0 | 2.0 | 0.00 | 0.00 | 0.00 | 96 | 967.7 |
| 20260831120142 | 61 | 164 | 0.0 | 1.0 | 0.00 | 0.00 | 0.00 | 96 | 967.8 |
| 20260831114551 | 61 | 164 | 0.0 | 0.0 | 0.00 | 0.00 | 0.00 | 96 | 967.6 |
| 20260831113050 | 60 | 164 | 0.0 | 1.0 | 0.00 | 0.00 | 0.00 | 96 | 967.5 |
| 20260831111552 | 60 | 238 | 0.0 | 3.0 | 0.00 | 0.00 | 0.00 | 96 | 967.6 |
| 20260831110044 | 60 | 236 | 0.0 | 1.0 | 0.00 | 0.00 | 0.00 | 96 | 967.3 |
| 20260831104544 | 60 | 211 | 0.0 | 3.0 | 0.00 | 0.00 | 0.00 | 95 | 967.0 |
| 20260831103048 | 60 | 213 | 0.0 | 0.0 | 0.00 | 0.00 | 0.00 | 96 | 966.8 |
| 20260831101541 | 60 | 213 | 0.0 | 0.0 | 0.00 | 0.00 | 0.00 | 95 | 967.1 |
| 20260831100045 | 60 | 213 | 0.0 | 0.0 | 0.00 | 0.00 | 0.00 | 95 | 966.9 |
| 20260831094547 | 59 | 213 | 0.0 | 0.0 | 0.00 | 0.00 | 0.00 | 94 | 967.1 |
| 20260831093040 | 59 | 213 | 0.0 | 0.0 | 0.00 | 0.00 | 0.00 | 94 | 967.0 |
| 20260831091538 | 60 | 213 | 0.0 | 0.0 | 0.00 | 0.00 | 0.00 | 94 | 967.1 |
| 20260831090037 | 60 | 213 | 0.0 | 0.0 | 0.00 | 0.00 | 0.00 | 94 | 966.9 |
| 20260831084540 | 60 | 215 | 0.0 | 0.0 | 0.00 | 0.00 | 0.00 | 94 | 966.8 |
| 20260831083036 | 61 | 215 | 0.0 | 0.0 | 0.00 | 0.00 | 0.00 | 94 | 967.0 |
| 20260831081542 | 60 | 215 | 0.0 | 0.0 | 0.00 | 0.00 | 0.00 | 93 | 966.9 |
| 20260831080035 | 61 | 215 | 0.0 | 0.0 | 0.00 | 0.00 | 0.00 | 93 | 966.7 |
| 20260831074532 | 61 | 215 | 0.0 | 0.0 | 0.00 | 0.00 | 0.00 | 93 | 967.0 |
| 20260831073031 | 61 | 215 | 0.0 | 0.0 | 0.00 | 0.00 | 0.00 | 93 | 966.9 |
| 20260831071533 | 61 | 215 | 0.0 | 0.0 | 0.00 | 0.00 | 0.00 | 92 | 966.6 |
| 20260831070035 | 62 | 215 | 0.0 | 0.0 | 0.00 | 0.00 | 0.00 | 92 | 966.9 |
| 20260831064528 | 62 | 215 | 0.0 | 0.0 | 0.00 | 0.00 | 0.00 | 92 | 966.9 |
| 20260831063026 | 62 | 215 | 0.0 | 0.0 | 0.00 | 0.00 | 0.00 | 91 | 967.6 |
| 20260831061523 | 62 | 215 | 0.0 | 0.0 | 0.00 | 0.00 | 0.00 | 91 | 967.0 |
| 20260831060020 | 63 | 215 | 0.0 | 0.0 | 0.00 | 0.00 | 0.00 | 91 | 967.3 |
| 20260831054520 | 63 | 215 | 0.0 | 0.0 | 0.00 | 0.00 | 0.00 | 90 | 967.5 |
| 20260831053020 | 63 | 215 | 0.0 | 0.0 | 0.00 | 0.00 | 0.00 | 90 | 967.4 |
| 20260831051532 | 63 | 215 | 0.0 | 0.0 | 0.00 | 0.00 | 0.00 | 90 | 967.4 |
| 20260831050017 | 63 | 215 | 0.0 | 0.0 | 0.00 | 0.00 | 0.00 | 90 | 967.4 |
| 20260831044515 | 64 | 215 | 0.0 | 0.0 | 0.00 | 0.00 | 0.00 | 89 | 967.4 |
| 20260831043014 | 64 | 215 | 0.0 | 0.0 | 0.00 | 0.00 | 0.00 | 89 | 967.4 |
| 20260831041519 | 64 | 215 | 0.0 | 0.0 | 0.00 | 0.00 | 0.00 | 89 | 967.4 |
| 20260831040031 | 64 | 215 | 0.0 | 0.0 | 0.00 | 0.00 | 0.00 | 89 | 967.3 |
| 20260831034510 | 64 | 215 | 0.0 | 0.0 | 0.00 | 0.00 | 0.00 | 89 | 967.4 |
| 20260831033012 | 64 | 215 | 0.0 | 0.0 | 0.00 | 0.00 | 0.00 | 89 | 967.6 |
| 20260831031510 | 64 | 215 | 0.0 | 0.0 | 0.00 | 0.00 | 0.00 | 89 | 967.5 |
| 20260831030010 | 64 | 215 | 0.0 | 0.0 | 0.00 | 0.00 | 0.00 | 89 | 967.5 |
| 20260831024508 | 64 | 215 | 0.0 | 0.0 | 0.00 | 0.00 | 0.00 | 89 | 967.6 |
| 20260831023013 | 64 | 215 | 0.0 | 0.0 | 0.00 | 0.00 | 0.00 | 88 | 967.5 |
| 20260831021525 | 64 | 215 | 0.0 | 0.0 | 0.00 | 0.00 | 0.00 | 88 | 967.7 |
| 20260831020006 | 65 | 215 | 0.0 | 0.0 | 0.00 | 0.00 | 0.00 | 88 | 967.5 |
| 20260831014505 | 65 | 215 | 0.0 | 0.0 | 0.00 | 0.00 | 0.00 | 87 | 967.5 |
| 20260831013005 | 65 | 215 | 0.0 | 3.0 | 0.00 | 0.00 | 0.00 | 87 | 967.4 |
| 20260831011506 | 65 | 208 | 0.0 | 0.0 | 0.00 | 0.00 | 0.00 | 86 | 967.3 |
| 20260831010007 | 65 | 208 | 0.0 | 2.0 | 0.00 | 0.00 | 0.00 | 86 | 967.2 |
| 20260831004504 | 65 | 208 | 1.0 | 3.0 | 0.00 | 0.00 | 0.00 | 86 | 967.0 |
| 20260831003003 | 65 | 187 | 0.0 | 1.0 | 0.00 | 0.00 | 0.00 | 86 | 966.8 |
| 20260831001503 | 65 | 187 | 0.0 | 0.0 | 0.00 | 0.00 | 0.00 | 86 | 966.7 |
| 20260831000001 | 66 | 187 | 0.0 | 1.0 | 0.00 | 0.00 | 0.00 | 86 | 966.4 |
| 20260830234501 | 66 | 187 | 0.0 | 1.0 | 0.00 | 0.00 | 0.00 | 85 | 966.3 |
| 20260830233001 | 66 | 187 | 0.0 | 3.0 | 0.00 | 0.00 | 0.00 | 85 | 966.3 |
| 20260830231603 | 66 | 187 | 0.0 | 2.0 | 0.00 | 0.00 | 0.00 | 85 | 966.3 |
| 20260830230100 | 66 | 187 | 0.0 | 2.0 | 0.00 | 0.00 | 0.00 | 85 | 966.3 |
| 20260830224606 | 66 | 187 | 0.0 | 2.0 | 0.00 | 0.00 | 0.00 | 85 | 966.2 |
| 20260830223100 | 66 | 187 | 0.0 | 1.0 | 0.00 | 0.00 | 0.00 | 85 | 966.1 |
| 20260830221559 | 66 | 187 | 0.0 | 2.0 | 0.00 | 0.00 | 0.00 | 84 | 966.2 |
| 20260830220121 | 66 | 187 | 0.0 | 0.0 | 0.00 | 0.00 | 0.00 | 85 | 966.0 |
| 20260830214602 | 67 | 187 | 0.0 | 0.0 | 0.00 | 0.00 | 0.00 | 85 | 966.1 |
| 20260830213057 | 67 | 187 | 0.0 | 3.0 | 0.00 | 0.00 | 0.00 | 84 | 966.2 |
| 20260830211602 | 67 | 175 | 0.0 | 2.0 | 0.00 | 0.00 | 0.00 | 84 | 966.3 |
| 20260830210056 | 66 | 169 | 0.0 | 2.0 | 0.00 | 0.00 | 0.00 | 85 | 966.2 |
| 20260830204554 | 67 | 132 | 0.0 | 2.0 | 0.00 | 0.00 | 0.00 | 84 | 966.2 |
| 20260830203110 | 67 | 24 | 0.0 | 3.0 | 0.00 | 0.00 | 0.00 | 83 | 966.2 |
| 20260830201554 | 68 | 269 | 0.0 | 1.0 | 0.00 | 0.00 | 0.00 | 81 | 966.1 |
| 20260830200059 | 69 | 269 | 0.0 | 3.0 | 0.00 | 0.00 | 0.00 | 80 | 966.0 |
| 20260830194552 | 70 | 312 | 0.0 | 7.0 | 0.00 | 0.00 | 0.00 | 82 | 966.0 |
| 20260830193052 | 70 | 241 | 2.0 | 4.0 | 0.00 | 0.00 | 0.00 | 79 | 965.9 |
| 20260830191553 | 71 | 241 | 1.0 | 3.0 | 0.00 | 0.00 | 0.00 | 78 | 965.9 |
| 20260830190051 | 71 | 241 | 1.0 | 4.0 | 0.00 | 0.00 | 0.00 | 76 | 965.9 |
| 20260830184550 | 72 | 241 | 1.0 | 5.0 | 0.00 | 0.00 | 0.00 | 75 | 965.9 |
| 20260830183105 | 72 | 252 | 1.0 | 4.0 | 0.00 | 0.00 | 0.00 | 75 | 965.9 |
| 20260830181554 | 73 | 149 | 0.0 | 3.0 | 0.00 | 0.00 | 0.00 | 75 | 966.2 |
| 20260830180105 | 74 | 225 | 1.0 | 4.0 | 0.00 | 0.00 | 0.00 | 74 | 966.2 |
| 20260830174647 | 75 | 186 | 1.0 | 5.0 | 0.00 | 0.00 | 0.00 | 71 | 966.3 |
| 20260830173112 | 75 | 234 | 2.0 | 4.0 | 0.00 | 0.00 | 0.00 | 71 | 966.5 |
| 20260830171555 | 77 | 117 | 3.0 | 6.0 | 0.00 | 0.00 | 0.00 | 67 | 966.5 |
| 20260830170041 | 75 | 167 | 1.0 | 3.0 | 0.00 | 0.00 | 0.00 | 72 | 966.6 |
| 20260830164538 | 74 | 179 | 1.0 | 3.0 | 0.00 | 0.00 | 0.00 | 74 | 966.7 |
| 20260830163036 | 73 | 173 | 1.0 | 3.0 | 0.00 | 0.00 | 0.00 | 77 | 967.0 |
| 20260830161541 | 73 | 144 | 1.0 | 4.0 | 0.00 | 0.00 | 0.00 | 74 | 967.2 |
| 20260830160035 | 73 | 157 | 1.0 | 4.0 | 0.00 | 0.00 | 0.00 | 75 | 967.3 |
| 20260830154533 | 72 | 155 | 1.0 | 5.0 | 0.00 | 0.00 | 0.00 | 77 | 967.3 |
| 20260830153031 | 72 | 146 | 2.0 | 6.0 | 0.00 | 0.00 | 0.00 | 74 | 967.4 |
| 20260830151527 | 70 | 169 | 4.0 | 8.0 | 0.00 | 0.00 | 0.00 | 76 | 967.6 |
| 20260830150024 | 68 | 122 | 2.0 | 4.0 | 0.00 | 0.00 | 0.00 | 80 | 967.6 |
| 20260830144523 | 67 | 137 | 1.0 | 4.0 | 0.00 | 0.00 | 0.00 | 81 | 967.6 |
| 20260830143025 | 66 | 132 | 3.0 | 7.0 | 0.00 | 0.00 | 0.00 | 80 | 967.5 |
| 20260830141517 | 66 | 92 | 3.0 | 8.0 | 0.00 | 0.00 | 0.00 | 78 | 967.2 |
| 20260830140115 | 66 | 119 | 2.0 | 6.0 | 0.00 | 0.00 | 0.00 | 78 | 967.5 |
| 20260830134529 | 64 | 98 | 3.0 | 7.0 | 0.00 | 0.00 | 0.00 | 79 | 967.4 |
| 20260830133007 | 63 | 98 | 3.0 | 5.0 | 0.00 | 0.00 | 0.00 | 80 | 967.5 |
| 20260830131508 | 62 | 102 | 4.0 | 7.0 | 0.00 | 0.00 | 0.00 | 80 | 967.7 |
| 20260830130007 | 62 | 113 | 3.0 | 7.0 | 0.00 | 0.00 | 0.00 | 80 | 967.8 |
| 20260830124504 | 62 | 86 | 4.0 | 8.0 | 0.00 | 0.00 | 0.00 | 79 | 967.8 |
| 20260830123003 | 61 | 85 | 2.0 | 7.0 | 0.00 | 0.00 | 0.00 | 80 | 967.9 |